Yellowstone National Park, WY

2:05 PM MDT on August 29, 2016 (GMT -0600)
Yellowstone

Weather History for KP60 - March, 2013

Change the Weather History Date:

Sunday, March 17, 2013

  Actual Average Record
Temperature  
Mean Temperature 17 °F 23 °F  
Max Temperature 27 °F 37 °F 52 °F (2007)
Min Temperature 7 °F 10 °F -14 °F (2002)
Degree Days  
Heating Degree Days 48 42  
Month to date heating degree days 725 749  
Since 1 July heating degree days 8592 8686  
Cooling Degree Days 0 0  
Month to date cooling degree days 0 0  
Year to date cooling degree days 0 0  
Moisture  
Dew Point 13 °F    
Average Humidity 74    
Maximum Humidity 92    
Minimum Humidity 56    
Precipitation  
Precipitation 0.78 in 0.04 in 0.78 in (2013)
Month to date precipitation 1.52 0.54  
Year to date precipitation 3.86 4.06  
Sea Level Pressure  
Sea Level Pressure 29.73 in    
Wind  
Wind Speed 7 mph (West)    
Max Wind Speed 21 mph    
Max Gust Speed 31 mph    
T = Trace of Precipitation, MM = Missing Value Source: NWS Daily Summary

Daily Weather History Graph

Daily Weather History Graph

Search for Another Location

Airport or City:

Trip Planner

Search our weather history database for the weather conditions in past years. The results will help you decide how hot, cold, wet, or windy it might be!

Date:

Astronomy

Mar. 17, 2013 Rise Set
Actual Time 7:29 AM MDT 7:30 PM MDT
Civil Twilight 7:00 AM MDT 7:59 PM MDT
Nautical Twilight 6:26 AM MDT 8:33 PM MDT
Astronomical Twilight 5:52 AM MDT 9:08 PM MDT
Moon 10:31 AM MDT (3/17) 12:54 AM MDT (3/17)
Length of Visible Light 12h 59m
Length of Day
12h 00m
Waxing Crescent, 32% of the Moon is Illuminated
Mar 17
Waxing Crescent
Mar 19
First Quarter
Mar 27
Full
Apr 2
Last Quarter
Apr 10
New

Hourly Weather History & Observations

Time (MDT) Temp. Windchill Dew Point Humidity Pressure Visibility Wind Dir Wind Speed Gust Speed Precip Events Conditions
12:56 AM 27.0 °F - 24.1 °F 89% 29.66 in - Calm Calm - 0.01 in   Unknown
1:56 AM 27.0 °F - 25.0 °F 92% 29.62 in - Calm Calm - 0.11 in   Unknown
2:56 AM 27.0 °F 21.6 °F 25.0 °F 92% 29.59 in - Variable 4.6 mph - 0.09 in   Unknown
3:56 AM 27.0 °F 21.6 °F 24.1 °F 89% 29.55 in - Variable 4.6 mph - 0.02 in   Unknown
4:56 AM 27.0 °F 20.5 °F 24.1 °F 89% 29.52 in - Variable 5.8 mph - N/A   Unknown
5:56 AM 25.0 °F 16.3 °F 21.9 °F 88% 29.53 in - West 8.1 mph - 0.03 in   Unknown
6:56 AM 21.9 °F 12.5 °F 19.0 °F 89% 29.55 in - West 8.1 mph - 0.04 in   Unknown
7:56 AM 19.9 °F 12.1 °F 18.0 °F 92% 29.59 in - Variable 5.8 mph - 0.19 in   Unknown
8:56 AM 21.0 °F - 18.0 °F 88% 29.59 in - Calm Calm - 0.08 in   Unknown
9:56 AM 21.9 °F 17.2 °F 18.0 °F 85% 29.57 in - Variable 3.5 mph - 0.02 in   Unknown
10:56 AM 17.1 °F 2.5 °F 14.0 °F 88% 29.63 in - WNW 15.0 mph 23.0 mph 0.11 in   Unknown
11:56 AM 17.1 °F 8.7 °F 12.0 °F 81% 29.68 in - Variable 5.8 mph 19.6 mph 0.07 in   Unknown
12:56 PM 18.0 °F 6.1 °F 6.1 °F 60% 29.72 in - WNW 10.4 mph 19.6 mph 0.02 in   Unknown
1:56 PM 18.0 °F 1.7 °F 7.0 °F 62% 29.74 in - West 19.6 mph 29.9 mph N/A   Unknown
2:56 PM 18.0 °F 7.7 °F 10.0 °F 71% 29.76 in - West 8.1 mph 21.9 mph 0.01 in   Unknown
3:56 PM 19.9 °F 9.3 °F 6.1 °F 55% 29.76 in - West 9.2 mph 19.6 mph N/A   Unknown
4:56 PM 18.0 °F 8.7 °F 5.0 °F 57% 29.79 in - Variable 6.9 mph 23.0 mph N/A   Unknown
5:56 PM 17.1 °F 5.8 °F 9.0 °F 71% 29.84 in - WNW 9.2 mph 21.9 mph N/A   Unknown
6:56 PM 16.0 °F 3.6 °F 6.1 °F 65% 29.89 in - West 10.4 mph 20.7 mph N/A   Unknown
7:56 PM 12.9 °F 0.7 °F 6.1 °F 74% 29.94 in - West 9.2 mph - N/A   Unknown
8:56 PM 12.9 °F - 5.0 °F 71% 29.96 in - Calm Calm - N/A   Unknown
9:56 PM 12.0 °F 1.5 °F 3.9 °F 70% 29.98 in - West 6.9 mph - N/A   Unknown
10:56 PM 9.0 °F 2.4 °F 1.9 °F 73% 30.03 in - Variable 3.5 mph - N/A   Unknown
11:56 PM 10.0 °F 1.8 °F 3.9 °F 76% 30.03 in - West 4.6 mph - N/A   Unknown